Regional Weather Roundup
Issued by NWS

Home | Current Version | Previous Version | Text Only | Print | Product List | Glossary Off
Versions: 1 2 3 4 5 6 7 8 9 10 11 12 13 14 15 16 17 18 19 20 21 22 23 24 25 26 27 28 29 30 31 32 33 34 35 36 37 38 39 40 41 42 43 44 45 46 47 48 49 50

000
ASUS45 KCYS 211110
RWRWY

WYOMING REGIONAL WEATHER ROUNDUP
NATIONAL WEATHER SERVICE CHEYENNE WY
500 AM MDT SUN SEP 21 2014

NOTE:  "FAIR" INDICATES FEW OR NO CLOUDS BELOW 12,000 FEET
WITH NO SIGNIFICANT WEATHER AND/OR OBSTRUCTIONS TO VISIBILITY.

WYZ001-211200-
YELLOWSTONE NATIONAL PARK

CITY           SKY/WX    TMP DP  RH WIND       PRES   REMARKS
LK YELLOWSTONE   N/A     34  32  92 CALM      30.44R
W YELLOWSTONE  NOT AVBL

$$
WYZ002>013-054>058-071-098>099-211200-
NORTHERN WYOMING

CITY           SKY/WX    TMP DP  RH WIND       PRES   REMARKS
JACKSON        MOCLDY    48  43  81 N3        30.34R
CODY             N/A    N/A N/A N/A MISG        N/A
GREYBULL       CLEAR     46  41  82 S3        30.28S
WORLAND        CLEAR     45  40  82 SE5       30.29S
SHERIDAN       CLEAR     40  37  89 CALM      30.30F
BUFFALO        CLEAR     49  37  63 S7        30.34F
GILLETTE       CLEAR     40  36  86 S5        30.34S
HULETT         FAIR      43  34  70 MISG      30.35
NEWCASTLE      FAIR      43  34  70 NE3       30.36

$$
WYZ014>020-022>026-101>103-211200-
CENTRAL WYOMING

CITY           SKY/WX    TMP DP  RH WIND       PRES   REMARKS
BIG PINEY      PTCLDY    44  34  67 N5        30.37F
PINEDALE       MOSUNNY   37  36  93 NW8       30.38F WCI  31
DUBOIS         FAIR      41  34  75 NW3       30.44R
LANDER         CLEAR     50  39  66 W8        30.35R
RIVERTON       CLEAR     51  35  54 NE6       30.35S
CASPER         CLEAR     40  31  70 NW7       30.36S
DOUGLAS        PTCLDY    48  37  65 E8        30.37S

$$
WYZ021-027>030-104>119-211200-
SOUTHERN WYOMING

CITY           SKY/WX    TMP DP  RH WIND       PRES   REMARKS
EVANSTON       MOCLDY    53  37  54 E9        30.30R
KEMMERER       SUNNY     52  37  58 N16       30.35S
FORT BRIDGER   FAIR      48  39  69 NE8       30.35R
ROCK SPRINGS   PTCLDY    49  36  61 E9        30.34R
DIXON          FAIR      46  40  78 CALM      30.30S
RAWLINS        CLEAR     49  35  58 NE13      30.36S
SARATOGA       FAIR      43  39  87 CALM      30.35F
LARAMIE        CLEAR     48  36  63 SE10      30.41F
CHEYENNE       CLOUDY    55  38  52 S5        30.40F
TORRINGTON     MOCLDY    51  43  74 CALM      30.35R
PINE BLUFFS    PTSUNNY   52  41  66 CALM      30.38F

$$



USA.gov is the U.S. government's official web portal to all federal, state and local government web resources and services.